When you browse on this site, cookies collect data to enhance your experience and personalize the content and advertising you see.
Visit our Privacy Policy to learn more. By continuing to use the site, you agree to this use of cookies and data.
  • In Romania
  • List of Countries
  • For 7 days
  • Water Temperature
  • Satellite Maps
  • Weather Map
  • Weather Widgets
  • user-avatar
    Login

    Hourly Weather Arnieres-sur-Iton

    Today, 17 July, Wednesday

    Time Temperature Precipitation Wind Pressure Humidity
    00:00 +15°C° 0 mm 1 mps 749 mmHg 82%
    01:00 +15°C° 0 mm 1 mps 749 mmHg 83%
    02:00 +14°C° 0 mm 1 mps 749 mmHg 84%
    03:00 +14°C° 0 mm 1 mps 749 mmHg 85%
    04:00 +15°C° 0 mm 1 mps 749 mmHg 83%
    05:00 +16°C° 0 mm 1 mps 749 mmHg 80%
    06:00 +18°C° 0 mm 1 mps 749 mmHg 77%
    07:00 +20°C° 0 mm 1 mps 749 mmHg 71%
    08:00 +22°C° 0 mm 1 mps 749 mmHg 65%
    09:00 +24°C° 0 mm 2 mps 749 mmHg 59%
    10:00 +25°C° 0 mm 2 mps 748 mmHg 54%
    11:00 +26°C° 0 mm 2 mps 748 mmHg 50%
    12:00 +27°C° 0 mm 2 mps 748 mmHg 45%
    13:00 +27°C° 0 mm 3 mps 748 mmHg 44%
    14:00 +27°C° 0 mm 3 mps 748 mmHg 44%
    15:00 +27°C° 0 mm 3 mps 747 mmHg 43%
    16:00 +26°C° 0 mm 3 mps 747 mmHg 48%
    17:00 +25°C° 0 mm 3 mps 747 mmHg 53%
    18:00 +22°C° 0 mm 3 mps 747 mmHg 58%
    19:00 +21°C° 0 mm 3 mps 747 mmHg 62%
    20:00 +19°C° 0 mm 2 mps 747 mmHg 66%
    21:00 +17°C° 0 mm 2 mps 747 mmHg 70%
    22:00 +17°C° 0 mm 2 mps 747 mmHg 71%
    23:00 +16°C° 0 mm 2 mps 747 mmHg 72%

    Tomorrow, 18 July, Thursday

    Time Temperature Precipitation Wind Pressure Humidity
    00:00 +16°C° 0 mm 2 mps 747 mmHg 73%
    01:00 +15°C° 0 mm 2 mps 746 mmHg 78%
    02:00 +14°C° 0 mm 2 mps 746 mmHg 83%
    03:00 +13°C° 0 mm 2 mps 746 mmHg 88%
    04:00 +14°C° 0 mm 2 mps 746 mmHg 86%
    05:00 +14°C° 0 mm 2 mps 746 mmHg 84%
    06:00 +15°C° 0 mm 2 mps 746 mmHg 83%
    07:00 +16°C° 0 mm 2 mps 747 mmHg 75%
    08:00 +18°C° 0 mm 2 mps 747 mmHg 68%
    09:00 +20°C° 0 mm 3 mps 747 mmHg 61%
    10:00 +21°C° 0 mm 3 mps 747 mmHg 57%
    11:00 +22°C° 0 mm 4 mps 747 mmHg 53%
    12:00 +23°C° 0 mm 4 mps 747 mmHg 49%
    13:00 +23°C° 0.1 mm 4 mps 746 mmHg 55%
    14:00 +23°C° 0.1 mm 4 mps 746 mmHg 60%
    15:00 +23°C° 0.1 mm 4 mps 746 mmHg 66%
    16:00 +22°C° 0.5 mm 4 mps 746 mmHg 73%
    17:00 +21°C° 0.5 mm 3 mps 746 mmHg 79%
    18:00 +20°C° 0.5 mm 3 mps 746 mmHg 86%
    19:00 +19°C° 0.3 mm 3 mps 746 mmHg 89%
    20:00 +18°C° 0.3 mm 3 mps 747 mmHg 91%
    21:00 +17°C° 0.3 mm 3 mps 747 mmHg 94%
    22:00 +16°C° 0 mm 3 mps 747 mmHg 94%
    23:00 +14°C° 0 mm 3 mps 747 mmHg 94%

    Day after tomorrow, 19 July, Friday

    Time Temperature Precipitation Wind Pressure Humidity
    00:00 +13°C° 0 mm 3 mps 747 mmHg 93%
    01:00 +13°C° 0 mm 3 mps 747 mmHg 94%
    02:00 +12°C° 0 mm 3 mps 747 mmHg 95%
    03:00 +11°C° 0 mm 3 mps 748 mmHg 95%
    04:00 +13°C° 0 mm 2 mps 748 mmHg 94%
    05:00 +13°C° 0 mm 2 mps 748 mmHg 93%
    06:00 +14°C° 0 mm 2 mps 748 mmHg 92%
    07:00 +16°C° 0 mm 2 mps 748 mmHg 83%
    08:00 +18°C° 0 mm 2 mps 749 mmHg 74%
    09:00 +19°C° 0 mm 2 mps 749 mmHg 66%
    10:00 +20°C° 0 mm 2 mps 749 mmHg 63%
    11:00 +21°C° 0 mm 2 mps 749 mmHg 59%
    12:00 +23°C° 0 mm 2 mps 749 mmHg 56%
    13:00 +23°C° 0 mm 2 mps 748 mmHg 54%
    14:00 +24°C° 0 mm 2 mps 748 mmHg 51%
    15:00 +25°C° 0 mm 2 mps 748 mmHg 48%
    16:00 +25°C° 0 mm 2 mps 748 mmHg 52%
    17:00 +25°C° 0 mm 2 mps 747 mmHg 56%
    18:00 +25°C° 0 mm 2 mps 747 mmHg 60%
    19:00 +23°C° 0 mm 2 mps 747 mmHg 62%
    20:00 +21°C° 0 mm 2 mps 747 mmHg 64%
    21:00 +19°C° 0 mm 2 mps 747 mmHg 65%
    22:00 +19°C° 0 mm 2 mps 747 mmHg 68%
    23:00 +18°C° 0 mm 3 mps 746 mmHg 71%

    20 July, Saturday

    Time Temperature Precipitation Wind Pressure Humidity
    00:00 +17°C° 0 mm 3 mps 746 mmHg 73%
    01:00 +17°C° 0 mm 3 mps 746 mmHg 77%
    02:00 +16°C° 0 mm 2 mps 746 mmHg 81%
    03:00 +16°C° 0 mm 2 mps 746 mmHg 85%
    04:00 +16°C° 0.5 mm 2 mps 746 mmHg 87%
    05:00 +16°C° 0.5 mm 2 mps 745 mmHg 89%
    06:00 +16°C° 0.5 mm 3 mps 745 mmHg 90%
    07:00 +18°C° 0.3 mm 3 mps 746 mmHg 86%
    08:00 +19°C° 0.3 mm 4 mps 746 mmHg 82%
    09:00 +21°C° 0.3 mm 5 mps 746 mmHg 78%
    10:00 +22°C° 0.6 mm 5 mps 746 mmHg 75%
    11:00 +23°C° 0.6 mm 6 mps 746 mmHg 73%
    12:00 +24°C° 0.6 mm 6 mps 746 mmHg 71%
    13:00 +24°C° 0.7 mm 6 mps 746 mmHg 68%
    14:00 +26°C° 0.7 mm 6 mps 746 mmHg 65%
    15:00 +26°C° 0.7 mm 6 mps 746 mmHg 61%
    16:00 +25°C° 0.2 mm 5 mps 747 mmHg 63%
    17:00 +25°C° 0.2 mm 4 mps 747 mmHg 65%
    18:00 +24°C° 0.2 mm 3 mps 747 mmHg 66%
    19:00 +21°C° 0 mm 3 mps 748 mmHg 72%
    20:00 +19°C° 0 mm 2 mps 748 mmHg 79%
    21:00 +17°C° 0 mm 2 mps 749 mmHg 85%
    22:00 +17°C° 0 mm 2 mps 749 mmHg 87%
    23:00 +16°C° 0 mm 2 mps 749 mmHg 90%

    21 July, Sunday

    Time Temperature Precipitation Wind Pressure Humidity
    00:00 +16°C° 0 mm 2 mps 750 mmHg 92%
    01:00 +15°C° 0 mm 2 mps 750 mmHg 93%
    02:00 +15°C° 0 mm 2 mps 750 mmHg 93%
    03:00 +15°C° 0 mm 2 mps 750 mmHg 93%
    04:00 +15°C° 0 mm 2 mps 751 mmHg 92%
    05:00 +16°C° 0 mm 2 mps 751 mmHg 91%
    06:00 +16°C° 0 mm 2 mps 751 mmHg 90%
    07:00 +18°C° 0 mm 2 mps 752 mmHg 82%
    08:00 +19°C° 0 mm 2 mps 752 mmHg 74%
    09:00 +21°C° 0 mm 2 mps 753 mmHg 65%
    10:00 +23°C° 0 mm 2 mps 753 mmHg 62%
    11:00 +24°C° 0 mm 2 mps 753 mmHg 58%
    12:00 +25°C° 0 mm 2 mps 753 mmHg 55%
    13:00 +25°C° 0 mm 1 mps 753 mmHg 54%
    14:00 +25°C° 0 mm 1 mps 753 mmHg 54%
    15:00 +25°C° 0 mm 1 mps 753 mmHg 54%
    16:00 +25°C° 0 mm 1 mps 753 mmHg 55%
    17:00 +25°C° 0 mm 1 mps 753 mmHg 56%
    18:00 +25°C° 0 mm 1 mps 753 mmHg 58%
    19:00 +23°C° 0 mm 1 mps 753 mmHg 65%
    20:00 +20°C° 0 mm 2 mps 753 mmHg 72%
    21:00 +18°C° 0 mm 2 mps 753 mmHg 79%
    22:00 +17°C° 0 mm 2 mps 753 mmHg 82%
    23:00 +16°C° 0 mm 2 mps 753 mmHg 84%

    22 July, Monday

    Time Temperature Precipitation Wind Pressure Humidity
    00:00 +16°C° 0 mm 2 mps 753 mmHg 87%
    01:00 +15°C° 0 mm 2 mps 753 mmHg 87%
    02:00 +15°C° 0 mm 2 mps 752 mmHg 87%
    03:00 +15°C° 0 mm 2 mps 752 mmHg 86%
    04:00 +16°C° 0 mm 2 mps 752 mmHg 84%
    05:00 +16°C° 0 mm 2 mps 752 mmHg 81%
    06:00 +17°C° 0 mm 2 mps 752 mmHg 78%
    07:00 +20°C° 0 mm 3 mps 752 mmHg 71%
    08:00 +22°C° 0 mm 3 mps 752 mmHg 64%
    09:00 +25°C° 0 mm 3 mps 752 mmHg 57%
    10:00 +27°C° 0 mm 3 mps 752 mmHg 52%
    11:00 +28°C° 0 mm 3 mps 751 mmHg 48%
    12:00 +29°C° 0 mm 3 mps 751 mmHg 44%
    13:00 +30°C° 0 mm 2 mps 751 mmHg 42%
    14:00 +30°C° 0 mm 2 mps 751 mmHg 41%
    15:00 +31°C° 0 mm 2 mps 750 mmHg 39%
    16:00 +30°C° 0 mm 2 mps 750 mmHg 44%
    17:00 +29°C° 0 mm 3 mps 750 mmHg 48%
    18:00 +28°C° 0 mm 3 mps 750 mmHg 52%
    19:00 +26°C° 0 mm 3 mps 750 mmHg 56%
    20:00 +24°C° 0 mm 3 mps 749 mmHg 60%
    21:00 +21°C° 0 mm 3 mps 749 mmHg 63%
    22:00 +21°C° 0 mm 3 mps 749 mmHg 65%
    23:00 +20°C° 0 mm 3 mps 749 mmHg 67%
    Show more